Tracking 25711 objects as of 22-May-2022
HD Live streaming from Space Station
objects crossing your sky now

USA 324

Track USA 324 now!


NORAD ID: 51280
Int'l Code: 2022-006A
Perigee: 35,751.1 km
Apogee: 35,756.7 km
Inclination: 0.2 °
Period: 1,434.1 minutes
Semi major axis: 42124 km
RCS: Unknown
Launch date: January 21, 2022
Source: United States (US)
Launch site: AIR FORCE EASTERN TEST RANGE (AFETR)
aabbcc
Your satellite tracking list
Your tracking list is empty




NASA's NSSDC Master Catalog

Two Line Element Set (TLE):
1 51280U 22006A   22130.32402020 -.00000237  00000-0  00000+0 0  9999
2 51280   0.1741 100.1995 0000663 123.4174  81.9815  1.00414101  1075
Source of the keplerian elements: McCants